Regional Weather Roundup
Issued by NWS Little Rock, AR

Home | Current Version | Previous Version | Graphics & Text | Print | Product List | Glossary On
Versions: 1 2 3 4 5 6 7 8 9 10 11 12 13 14 15 16 17 18 19 20 21 22 23 24 25 26 27 28 29 30 31 32 33 34 35 36 37 38 39 40 41 42 43 44 45 46 47 48 49 50
000
ASUS44 KLZK 011205
RWRLZK

WEATHER ROUNDUP FOR ARKANSAS
NATIONAL WEATHER SERVICE LITTLE ROCK AR
700 AM CDT WED JUL 01 2015

NOTE: "FAIR" INDICATES FEW OR NO CLOUDS BELOW 12,000 FEET WITH NO
SIGNIFICANT WEATHER AND/OR OBSTRUCTIONS TO VISIBILITY.

ARZ001-003-010-029-011300-
NORTHWEST ARKANSAS

CITY           SKY/WX    TMP DP  RH WIND       PRES   REMARKS
FAYETTEVILLE   MOCLDY    73  71  93 S6        29.96S
6HR MIN TEMP:  72; 6HR MAX TEMP:  77;

FORT SMITH     MOCLDY    76  69  79 S3        29.93R
6HR MIN TEMP:  75; 6HR MAX TEMP:  82;

HARRISON       CLOUDY    78  69  73 W8        29.96R
6HR MIN TEMP:  73; 6HR MAX TEMP:  79;

BENTONVILLE    FAIR      75  70  83 SW6       29.94F
6HR MIN TEMP:  73; 6HR MAX TEMP:  77;

ROGERS         MOCLDY    75  71  87 SW9       29.95S
6HR MIN TEMP:  75; 6HR MAX TEMP:  79;

SILOAM SPGS    PTCLDY    73  66  78 S8        29.95F
6HR MIN TEMP:  73; 6HR MAX TEMP:  75;

HIGHFILL       FAIR      75  72  90 SW9       29.94S
6HR MIN TEMP:  74; 6HR MAX TEMP:  77;

SPRINGDALE     CLEAR     75  72  88 SW7       29.97S
$$

ARZ004-005-016-011300-
NORTH CENTRAL ARKANSAS

CITY           SKY/WX    TMP DP  RH WIND       PRES   REMARKS
BATESVILLE     CLOUDY    77  70  78 CALM      29.93R
6HR MIN TEMP:  73; 6HR MAX TEMP:  79;

FLIPPIN        CLOUDY    72  70  94 N12       29.95R
6HR MIN TEMP:  72; 6HR MAX TEMP:  75;

MTN HOME       RAIN      73  71  93 VRB3      29.99R FOG
6HR MIN TEMP:  73; 6HR MAX TEMP:  75; 6HR PCP: TRACE;

$$

ARZ040-041-011300-
WEST CENTRAL ARKANSAS

CITY           SKY/WX    TMP DP  RH WIND       PRES   REMARKS
MENA           PTCLDY    77  72  83 SW5       30.00R
MOUNT IDA      MOCLDY    75  70  84 CALM      29.95R
6HR MIN TEMP:  74; 6HR MAX TEMP:  81;

$$

ARZ009-017-025-026-028-011300-
NORTHEAST ARKANSAS

CITY           SKY/WX    TMP DP  RH WIND       PRES   REMARKS
JONESBORO      CLOUDY    78  71  79 W7        29.92R
6HR MIN TEMP:  74; 6HR MAX TEMP:  78;

NEWPORT        CLOUDY    76  73  90 S6        29.95R
6HR MIN TEMP:  74; 6HR MAX TEMP:  78;

WALNUT RIDGE   CLOUDY    75  70  83 SW5       29.93R
6HR MIN TEMP:  73; 6HR MAX TEMP:  77;

BLYTHEVILLE    CLOUDY    77  73  87 S7        29.94R
6HR MIN TEMP:  75; 6HR MAX TEMP:  78;

$$

ARZ022-023-033-042-044-011300-
CENTRAL ARKANSAS

CITY           SKY/WX    TMP DP  RH WIND       PRES   REMARKS
LITTLE ROCK    CLOUDY    74  69  85 SW6       29.95R
6HR MIN TEMP:  74; 6HR MAX TEMP:  80;

N LITTLE ROCK    N/A     74  72  93 SW5       29.95R
6HR MIN TEMP:  74; 6HR MAX TEMP:  80;

JACKSONVILLE   CLOUDY    75  71  87 W1        29.94R
6HR MIN TEMP:  74; 6HR MAX TEMP:  80;

SEARCY         CLOUDY    73  71  93 CALM      29.95R
6HR MIN TEMP:  72; 6HR MAX TEMP:  76;

HOT SPRINGS    CLOUDY    74  70  87 W3        29.98R
6HR MIN TEMP:  73; 6HR MAX TEMP:  79;

RUSSELLVILLE   CLOUDY    73  72  96 CALM      29.93R
6HR MIN TEMP:  73; 6HR MAX TEMP:  77;

CLINTON        FAIR      70  70 100 CALM      29.95S FOG
$$

ARZ036-011300-
EAST ARKANSAS

CITY           SKY/WX    TMP DP  RH WIND       PRES   REMARKS
WEST MEMPHIS   PTSUNNY   75  72  90 SW7       29.95R
6HR MIN TEMP:  72; 6HR MAX TEMP:  77;

$$

ARZ050-053-066-070-073-011300-
SOUTHWEST ARKANSAS

CITY           SKY/WX    TMP DP  RH WIND       PRES   REMARKS
ARKADELPHIA    FAIR      72  72 100 S6        30.00R
6HR MIN TEMP:  70; 6HR MAX TEMP:  77;

CAMDEN         CLEAR     72  68  88 NE5       30.01R
TEXARKANA      PTCLDY    72  70  93 SW7       30.01R
6HR MIN TEMP:  72; 6HR MAX TEMP:  77;

EL DORADO      CLEAR     71  69  93 S5        30.03R
6HR MIN TEMP:  70; 6HR MAX TEMP:  72;

DE QUEEN       PTCLDY    71  70  96 CALM      29.98R
6HR MIN TEMP:  69; 6HR MAX TEMP:  78;

$$

ARZ056-057-069-011300-
SOUTHEAST ARKANSAS

CITY           SKY/WX    TMP DP  RH WIND       PRES   REMARKS
PINE BLUFF     SUNNY     71  69  93 SW7       29.97R
6HR MIN TEMP:  71; 6HR MAX TEMP:  77;

STUTTGART      MOSUNNY   73  68  83 MISG      29.95S
6HR MIN TEMP:  73; 6HR MAX TEMP:  79;

MONTICELLO     SUNNY     73  71  93 SW10G20   30.01R
6HR MIN TEMP:  72; 6HR MAX TEMP:  75;


$$





USA.gov is the U.S. government's official web portal to all federal, state and local government web resources and services.